Showing default

SES 18, 55970

Orbit data source: Space-Track

SES 18, 55970 is a payload satellite owned by SES (LU) in GEO that was launched on Fri, 17 Mar 2023 UTC via an FALCON 9 launch vehicle from the Air Force Eastern Test Range (AFETR). Payload-class satellites include a variety of spacecraft equipped with specific instruments for various scientific and technological missions. These include communications satellites like Starlink; space stations such as the ISS; scientific satellites like the Hubble; Earth observation satellites from companies like Planet Labs, Umbra, and HawkEye 360; GPS; miniature CubeSats for education and research; and military/defense satellites.

Loading next visibility...
Identifier
55970, 2023-038A
Orbit
GEO
Country
Flag of LULU / SES
Related business
Manufacturer
NGIS SSG
Mission
Operational Commercial Communications
Bus & Motor
GEOSTAR-3, BT-4?
Mass
3,605 kg wet, 1,139 kg dry
Launch date (UTC)
2023-03-17 (3 years ago)
Launch vehicle
FALCON 9
Launch site
Air Force Eastern Test Range (AFETR)
Object type
Payload
Rocket body
Debris
Shape & HBR
Box + 2 Pan, 11.5 m
Radar Cross Section
29.373 m², Large (>1 m²)

Expand to show TLE details & history
Last TLE update: 8 hours ago

TLE from 8 hours ago
0 SES 18
1 55970U 23038A   26062.92262978 -.00000114  00000-0  00000-0 0  9990
2 55970   0.0611 273.2314 0002458  34.4735  83.0047  1.00272219 11045
Epoch: 2026-03-03T22:08Z
TLE epoch observation values (Epoch: 2026-03-03T22:08:35.212Z)
Latitude
0.02025°
Longitude
-103.06972°
Altitude
35,784.658 km
Speed
3.075 km/s
True Right ascension
02h 03m 05s
True Declination
0° 01' 13"
Sunlit
Object was in daylight at epoch
Visualization orbit readout
Latitude
Unknown
Longitude
Unknown
Altitude
Unknown
Speed
Unknown
Apparent Right ascension
Unknown
Apparent Declination
Unknown
Sunlit
N/A
Visualization observer readout
Local Sidereal Time
10:02:06
Azimuth
Unknown
Elevation
Unknown
Doppler factor
Unknown
Orbital elements
Apogee altitude
35,797.908 km
Perigee altitude
35,777.179 km
Semi-major axis
42,165.681 km
Eccentricity
0.00025
Inclination
0.0611°
RAAN
273.2314°
Arg. of periapsis
34.4735°
True anomaly
83.03266°
Mean anomaly
83.0047°
Eccentric anomaly
83.01868°
Mean motion
0.25067 °/min
Orbital period
1,436.14 mins
BSTAR
0
Loading maneuver chart data...
Computing Atmospheric mass density...
Loading historical data...
Loading historical data...
Loading historical data...
Loading historical data...
Loading historical data...
Loading historical data...
Loading historical data...
Other satellites on launch #38 in the year 2023 (2023-03-17 UTC)

Documentation

Showing up to 5 results
|